Lid_Strength_Index
11 10 10 11 11 11 12 11 13 12 13 12 10 10 8 8 7 7 6 6 5 5 4 4 3 3 2 2 3 3 3 4 4 5 6 6 6 6 6 5 5 5 5 5
13 11 11 12 10 10 10 10 11 11 13 9 8 8 9 8 7 7 7 6 5 5 4 4 3 3 2 3 2 1 3 4 4 4 5 4 5 5 5 6 6 7 7 6
16 11 12 14 11 10 10 10 10 13 12 9 9 9 8 8 7 7 6 6 5 5 4 4 3 3 3 2 1 2 2 3 3 3 4 5 5 5 5 7 8 8 8 8
16 14 19 11 7 8 9 9 10 11 10 9 8 7 8 6 7 6 6 5 5 5 5 4 3 3 3 2 2 3 3 3 3 4 4 4 5 5 7 7 7 8 8 8
17 17 14 12 10 11 12 12 10 10 9 8 7 8 9 6 5 5 5 5 5 5 4 5 4 3 3 3 3 4 5 4 4 4 3 3 4 4 5 5 6 7 7 8
15 18 19 13 9 8 9 15 9 9 9 9 8 12 9 6 5 5 5 5 5 5 5 5 4 4 4 4 5 5 4 4 3 1 1 2 3 5 5 6 6 5 6 6
15 16 14 10 8 7 15 13 8 8 8 8 9 8 6 5 6 5 5 5 5 5 5 4 4 4 4 5 5 4 3 3 2 1 3 3 4 4 5 5 5 6 5 4
14 16 18 8 9 12 10 9 7 7 7 7 7 6 6 6 7 6 6 6 5 6 5 3 3 4 5 5 4 3 2 2 2 3 2 3 4 5 5 5 5 4 3 3
13 14 9 8 9 7 7 8 7 7 6 6 7 6 6 7 7 6 6 6 5 5 4 3 3 4 5 4 4 3 3 3 3 3 3 3 4 5 5 4 4 3 3 3
11 10 9 8 7 6 6 7 6 6 6 6 6 6 6 6 6 6 6 6 6 3 3 4 5 4 4 4 3 3 3 3 3 3 4 3 3 2 3 3 4 4 5 5
11 9 8 7 7 6 6 5 6 6 6 6 6 6 6 6 6 6 6 5 3 4 4 5 4 4 3 3 3 3 3 3 4 3 3 3 5 6 5 8 7 6 6 6
12 9 9 8 6 5 6 6 5 6 6 6 6 5 5 6 6 5 4 3 3 4 4 4 4 4 3 3 3 3 4 4 4 3 5 7 8 9 8 8 8 8 8 8
8 6 6 6 6 5 6 5 5 5 6 7 6 5 6 6 5 5 3 3 4 4 4 4 4 4 3 3 2 3 4 5 4 5 6 7 8 8 8 7 8 9 9 8
5 6 7 6 7 5 5 4 5 5 6 6 6 6 6 6 5 4 4 4 3 3 3 3 3 4 2 2 2 3 3 5 3 4 5 7 7 7 6 8 9 8 8 9
6 5 6 5 5 5 5 5 6 7 7 7 6 6 6 5 4 4 4 3 3 3 3 3 3 3 2 1 1 3 2 4 3 4 5 6 5 5 6 7 8 8 8 8
6 6 5 6 6 5 5 5 7 7 7 7 6 6 4 3 3 3 3 3 4 4 3 3 3 3 2 3 3 3 4 6 6 5 6 6 6 6 6 6 7 7 7 8
7 8 7 7 6 6 5 5 5 6 6 6 5 3 3 4 3 4 4 4 4 4 3 3 3 3 3 4 5 5 5 5 6 6 6 6 6 5 5 6 6 6 7 9
5 5 5 5 5 5 5 5 5 5 5 4 3 3 4 4 4 4 5 6 6 5 4 4 3 3 4 4 5 5 5 6 5 5 5 5 5 6 6 6 6 8 9 9
4 5 5 4 4 4 4 5 5 4 3 3 3 4 4 4 5 6 6 6 6 6 5 4 5 4 4 4 4 4 5 5 6 6 6 7 7 8 7 7 8 8 8 8
5 4 4 4 4 4 5 5 4 3 3 3 4 4 5 5 5 5 6 6 5 5 5 5 5 5 5 6 7 5 4 4 4 4 8 8 8 9 8 8 8 8 8 8
5 4 4 5 4 4 5 4 4 4 4 4 4 4 5 5 5 6 7 7 6 6 5 6 5 6 6 7 7 6 5 5 6 8 8 8 9 9 9 8 7 7 7 7
4 4 4 5 4 5 4 4 3 3 4 4 4 4 5 5 6 6 6 6 6 9 7 6 5 8 6 9 5 6 6 6 7 8 7 8 8 8 9 9 8 7 7 7
4 4 4 4 5 4 4 4 4 4 4 4 4 5 4 4 5 6 6 6 6 8 6 6 10 12 12 6 6 6 5 6 6 7 7 7 8 8 8 9 7 7 7 7
4 5 4 4 4 4 5 4 4 4 3 3 4 3 4 5 6 6 6 9 9 9 6 7 10 13 12 7 7 7 5 5 6 6 7 8 7 8 8 7 8 7 7 8
4 5 5 5 5 5 5 4 4 4 4 4 4 4 4 3 4 5 5 5 10 7 5 12 13 14 8 7 7 7 7 8 7 7 6 5 5 7 7 7 7 7 6 6
5 5 5 4 4 5 5 4 5 5 5 5 5 5 5 5 6 5 5 6 6 7 6 8 9 9 8 7 7 8 8 8 8 8 7 5 5 6 6 6 6 6 6 6
4 7 5 6 5 5 4 5 5 5 5 4 5 6 5 5 5 5 7 5 6 6 6 8 8 9 8 8 8 8 8 8 9 7 7 6 6 6 6 6 6 6 6 5